User: anonymous   Login
Location: Drummondville
(45.8830°N, 72.4830°W)
Time: 02:40:33
(UTC-05:00)
Language:

Envisat - Orbit

View from above orbital plane
View from above orbital plane
View from above satellite
View from above satellite

Ground track
Ground track

The orbit data is extracted from the following two-line orbital elements,

1 27386U 02009A   18015.83254600 -.00000020  00000-0  69898-5 0  9998
2 27386  98.2052  56.9158 0001375  83.6678 276.4658 14.37913070831636
Epoch (UTC): 15 January 2018 19:58:51
Eccentricity: 0.0001375
inclination: 98.2052°
perigee height: 764 km
apogee height: 766 km
right ascension of ascending node: 56.9158°
argument of perigee: 83.6678°
revolutions per day: 14.37913070
mean anomaly at epoch: 276.4658°
orbit number at epoch: 83163

The dashed part of the orbit path shows where the satellite is in the earth's shadow,  

DLR